Regional Weather Roundup
Issued by NWS

Home | Current Version | Previous Version | Graphics & Text | Print | Product List | Glossary Off
Versions: 1 2 3 4 5 6 7 8 9 10 11 12 13 14 15 16 17 18 19 20 21 22 23 24 25 26 27 28 29 30 31 32 33 34 35 36 37 38 39 40 41 42 43 44 45 46 47 48 49 50

000
ASUS43 KLSX 262107
RWRMO

WEATHER SUMMARY FOR MISSOURI
NATIONAL WEATHER SERVICE SPRINGFIELD MO
400 PM CDT SUN MAR 26 2017

NOTE: "FAIR" INDICATES FEW OR NO CLOUDS BELOW 12,000 FEET WITH NO
       SIGNIFICANT WEATHER AND/OR OBSTRUCTIONS TO VISIBILITY.
       CURRENT SKY AND/OR WEATHER CONDITIONS ARE NOT AVAILABLE FOR
       CHILLICOTHE AND FARMINGTON.

MOZ001>031-035>038-043-044-053-054-262200-
...NORTHERN AND WESTERN MISSOURI...

CITY           SKY/WX    TMP DP  RH WIND       PRES   REMARKS
KANSAS CTY INT CLOUDY    51  44  77 N3        29.90F
KANSAS C DTWN  CLOUDY    53  44  71 W3        29.90F
LEE`S SUMMIT   CLOUDY    53  45  74 SW8       29.90F
ST JOSEPH      CLOUDY    49  44  83 NW6       29.91F
CHILLICOTHE      N/A     51  43  74 NW5       29.92S
KIRKSVILLE     CLOUDY    49  45  86 W8        29.90S

$$
MOZ066>068-077>081-088>096-101>105-262200-
...SOUTHWEST MISSOURI...

CITY           SKY/WX    TMP DP  RH WIND       PRES   REMARKS
SPRINGFIELD    CLOUDY    65  49  56 VRB5      29.88F
JOPLIN         CLOUDY    67  48  50 VRB3      29.87F
BRANSON        PTSUNNY   66  48  52 SE6       29.90F

$$
MOZ032>034-039>042-045>050-055>058-069>072-262200-
...CENTRAL MISSOURI...

CITY           SKY/WX    TMP DP  RH WIND       PRES   REMARKS
COLUMBIA       CLOUDY    57  50  77 SW12      29.91R
JEFFERSON CITY CLOUDY    60  48  64 W13       29.90F
ROLLA          PTSUNNY   61  50  67 W10       29.89F
SEDALIA        CLOUDY    56  47  71 W3        29.91F
WHITEMAN AFB   CLOUDY    56  51  82 W7        29.89F
WARRENSBURG    CLOUDY    54  45  71 SW9       29.90F
OSAGE BEACH    PTSUNNY  N/A N/A N/A NW3       29.91F

$$
MOZ051-052-059>065-262200-
...EAST CENTRAL MISSOURI...

CITY           SKY/WX    TMP DP  RH WIND       PRES   REMARKS
ST LOUIS INTL  CLOUDY    62  49  62 W13       29.90S
SPIRIT OF STL  CLOUDY    60  51  72 W7        29.90S
ST CHARLES     CLOUDY    60  50  69 W14       29.89S

$$
MOZ072>076-082>087-097>100-106>115-262200-
...SOUTH CENTRAL AND SOUTHEAST MISSOURI...

CITY           SKY/WX    TMP DP  RH WIND       PRES   REMARKS
CAPE GIRARDEAU MOSUNNY   63  49  60 W12       29.94S
FARMINGTON     PTSUNNY   62  49  62 SW6       29.92F
POPLAR BLUFF   MOSUNNY   64  51  62 S10       29.93F
WEST PLAINS    CLOUDY    65  48  54 S12       29.92F

$$



USA.gov is the U.S. government's official web portal to all federal, state and local government web resources and services.